User: anonymous   Login
Location: Sternwarte Hubelmatt
(47.0367°N, 8.3053°E)
Time: 02:16:11
(UTC+02:00)
Language:

CAS-4A - Orbit

View from above orbital plane
View from above orbital plane
View from above satellite
View from above satellite

Ground track
Ground track

The orbit data is extracted from the following two-line orbital elements,

1 42761U 17034D   24109.59672927  .00025382  00000-0  97727-3 0  9993
2 42761  43.0170 201.1446 0012590 317.2207  42.7664 15.25827747378290
Epoch (UTC): 18 April 2024 14:19:17
Eccentricity: 0.0012590
inclination: 43.0170°
perigee height: 479 km
apogee height: 497 km
right ascension of ascending node: 201.1446°
argument of perigee: 317.2207°
revolutions per day: 15.25827747
mean anomaly at epoch: 42.7664°
orbit number at epoch: 37829

The dashed part of the orbit path shows where the satellite is in the earth's shadow,  

DLR